www.pogodaiklimat.ru

Погода и климат >> Архив погоды >> Ирак >> Najaf


ПОГОДА в Najaf

  • Прогноз погоды в Najaf
  • Монитор погоды в Najaf
  • Климат города

АРХИВ ПОГОДЫ в Najaf

Время (UTC), дата Ветер
(напр.,м/с)
 
Видим.   Явления Облачность Т
(С)
Тd
(С)
f
(%)
Тe
(С)
Тes
(С)
Комфортность P
(гПа)
Po
(гПа)
Тmin
(С)
Tmax
(С)
R
(мм)
R24
(мм)
S
(см)
00 11.11 штиль 0 10 км ясно +17.6 +10.3 62 +18 +18 1018.2 1018.0
03 11.11 штиль 0 10 км ясно +16.0 +11.1 73 +16 +16 1019.2 1019.0
06 11.11 штиль 0 10 км ясно +19.0 +9.8 55 +20 +24 1020.4 1020.0 +16.4
09 11.11 штиль 0 10 км ясно +26.2 +8.5 33 +26 +38 жарко 1019.8 1020.0
12 11.11 штиль 0 10 км ясно +27.3 +6.7 27 +27 +31 жарко 1018.5 1019.0
15 11.11 штиль 0 10 км ясно +23.7 +8.3 37 +24 +24 комфорт 1019.2 1019.0
18 11.11 штиль 0 10 км ясно +19.0 +9.5 54 +20 +20 1020.7 1021.0 +27.8
21 11.11 штиль 0 10 км ясно +18.5 +8.9 54 +19 +19 1021.5 1022.0
00 12.11 штиль 0 10 км ясно +16.8 +8.6 58 +17 +17 1021.6 1022.0
03 12.11 штиль 0 10 км ясно +15.0 +8.0 63 +15 +15 1022.4 1022.0
06 12.11 штиль 0 10 км ясно +17.7 +7.8 52 +18 +22 1014.3 1014.0 +14.5
09 12.11 штиль 0 10 км 3/0
[Ci sp]
+25.2 +9.3 37 +26 +37 жарко 1022.8 1023.0
12 12.11 С 2 10 км 3/0
[Ci fib]
+25.8 +4.9 26 +25 +28 комфорт 1021.2 1021.0
15 12.11 штиль 0 10 км 4/0
[Ci sp]
+21.8 +8.6 43 +23 +23 комфорт 1021.8 1022.0
00 13.11 штиль 0 10 км ясно +14.6 +4.7 51 +15 +15 1021.1 1021.0
09 13.11 СЗ 2 10 км 4/0
[Ci sp]
+23.7 +3.0 26 +23 +31 комфорт 1021.9 1022.0
12 13.11 СЗ 5 10 км 5/0
[Ci fib]
+25.5 +3.3 24 +25 +26 комфорт 1019.8 1020.0
15 13.11 штиль 0 10 км 4/0
[Ci fib]
+21.0 +5.5 36 +21 +21 комфорт 1020.1 1020.0
18 13.11 штиль 0 10 км 4/0
[Ci sp]
+19.0 +3.7 36 +19 +19 1020.3 1020.0 +26.2
21 13.11 штиль 0 10 км ясно +15.3 +4.3 48 +15 +15 1020.3 1020.0
00 14.11 штиль 0 10 км ясно +13.0 +5.7 61 +13 +13 1019.6 1020.0
03 14.11 штиль 0 10 км 3/0
[Ci sp]
+10.9 +5.7 70 +10 +10 1019.4 1019.0
06 14.11 З 3 10 км 8/0
[Cs]
+17.0 +3.9 42 +17 +19 1020.3 1020.0 +10.5
09 14.11 штиль 0 10 км 8/0
[]
+24.0 +4.5 28 +24 +31 комфорт 1019.5 1020.0
12 14.11 С 3 10 км 8/0
[Cs]
+25.6 +3.5 24 +25 +27 комфорт 1017.8 1018.0
15 14.11 штиль 0 10 км 3/0
[Ci sp]
+20.6 +4.5 35 +21 +21 комфорт 1018.6 1019.0
18 14.11 штиль 0 10 км 1/0
[Ci sp]
+17.2 +6.1 48 +17 +17 1018.7 1019.0 +26.0
21 14.11 штиль 0 10 км ясно +15.8 +9.0 64 +16 +16 1018.7 1019.0
00 15.11 штиль 0 10 км ясно +14.0 +7.5 65 +14 +14 1018.7 1019.0
03 15.11 штиль 0 10 км ясно +13.2 +5.7 60 +13 +13 1019.1 1019.0
06 15.11 штиль 0 10 км ясно +18.2 +4.3 40 +18 +23 1020.4 1020.0 +12.8
09 15.11 штиль 0 10 км ясно +26.0 +5.6 27 +25 +37 комфорт 1019.0 1019.0
12 15.11 С 2 10 км ясно +27.9 +4.7 23 +27 +30 жарко 1017.5 1018.0
15 15.11 штиль 0 10 км ясно +23.4 +9.1 40 +25 +25 комфорт 1017.8 1018.0
18 15.11 штиль 0 10 км ясно +20.2 +7.0 42 +21 +21 комфорт 1019.1 1019.0 +28.2
21 15.11 штиль 0 10 км ясно +18.2 +6.2 45 +18 +18 1019.1 1019.0
00 16.11 штиль 0 10 км ясно +16.1 +6.5 53 +16 +16 1018.8 1019.0
03 16.11 штиль 0 10 км ясно +14.8 +5.5 54 +15 +15 1019.8 1020.0
06 16.11 штиль 0 10 км ясно +18.7 +8.0 50 +19 +23 1021.3 1021.0 +11.0
09 16.11 штиль 0 10 км ясно +26.1 +8.3 32 +26 +37 жарко 1020.3 1020.0
12 16.11 СЗ 2 10 км ясно +27.0 +7.6 29 +27 +30 жарко 1018.7 1019.0
18 16.11 штиль 0 10 км ясно +18.2 +9.4 56 +18 +18 1020.0 1020.0 +28.0
00 17.11 штиль 0 10 км ясно +14.3 +8.1 66 +14 +14 1019.6 1020.0
06 17.11 штиль 0 10 км ясно +17.8 +7.0 49 +18 +22 1021.8 1022.0 +12.3
09 17.11 штиль 0 10 км ясно +25.4 +7.7 32 +25 +37 комфорт 1020.4 1020.0
15 17.11 штиль 0 10 км 3/0
[Ci sp]
+21.5 +9.4 46 +23 +23 комфорт 1019.8 1020.0
18 17.11 штиль 0 10 км ясно +17.0 +8.8 58 +17 +17 1020.9 1021.0 +28.0

 

Местоположение метеостанции Najaf (Ирак): широта 31.98 долгота 44.32 высота над уровнем моря 32 м.

В архиве по умолчанию представлена погода в Najaf за последнюю неделю. Архивные данные за месяц целиком и за предыдущие месяцы, начиная с января 2011 года, Вы можете получить, выбрав интересующий диапазон дат из раскрывающегося списка и нажав кнопку "Ввод!".

Внимание! Время в таблицах - всемирное. Для получения местного времени необходимо прибавить поправку, которая в Najaf равна 3 ч.

Смотрите также архив погоды в соседних городах и на ближайших метеорологических станциях:

Погода в Hella (Ирак) (54 км)
Погода в Diwaniya (Ирак) (62 км)
Погода в Karbalaa (Ирак) (77 км)
Погода в Samawah (Ирак) (118 км)
Погода в Azizyah (Ирак) (126 км)
Погода в Baghdad (Ирак) (139 км)
Погода в Ubaydah Bin Al Jarrah (Ирак) (146 км)
Погода в Kut-Al-Hai (Ирак) (164 км)
Погода в Rifai (Ирак) (171 км)
Погода в Ayn Al-Tamar (Ирак) (179 км)

Пояснения к столбцам:

Ветер - указаны скорость ветра в м/с - средняя за 10 мин, порывы в срок и между сроками (в фигурных скобках) и направление, откуда дует ветер: С - северный, СВ - северо-восточный, В - восточный, ЮВ - юго-восточный, Ю - южный, ЮЗ - юго-западный, З - западный, СЗ - северо-западный.
Видимость - горизонтальная дальность видимости в метрах или километрах. При видимости от 1 до 10 км при отсутствии осадков обычно наблюдается дымка, при ухудшении видимости до 1 км и менее - туман. В сухую погоду видимость может ухудшаться дымом, пылью или мглою.
Явления - указаны атмосферные явления, наблюдавшиеся в срок или в последний час перед сроком; фигурными скобками обозначены явления, наблюдавшиеся между сроками (за 1-3 часа до срока); квадратными скобками обозначены град или гололедные отложения с указанием их диаметра в мм.
Облачность - указаны через наклонную черту общая и нижняя облачность в баллах и высота нижней границы облаков в метрах; квадратными скобками обозначены формы облаков: Ci - перистые, Cs - перисто-слоистые, Cc - перисто-кучевые, Ac - высококучевые, As - высокослоистые, Sc - слоисто-кучевые, Ns - слоисто-дождевые, Cu - кучевые, Cb - кучево-дождевые. Подробнее классификацию облаков см. в Атласе облаков (PDF).
T - Температура воздуха - температура, измеренная на высоте 2 м над землей.
Td - Температура точки росы - температура, при понижении до которой содержащийся в воздухе водяной пар достигнет насыщения.
f - Относительная влажность воздуха - влажноcть воздуха, измеренная на высоте 2 м над землей.
Te - Эффективная температура - температура, которую ощущает одетый по сезону человек в тени. Характеристика душности погоды. При расчете учитывается влияние влажности воздуха и скорости ветра на теплоощущения человека.
Tes - Эффективная температура на солнце - температура, которую ощущает человек, с поправкой на солнечный нагрев. Характеристика знойности погоды. Зависит от высоты солнца над горизонтом, облачности и скорости ветра. Ночью, в пасмурную погоду, а также при ветре 12 м/с и более поправка равна нулю.
P - Атмосферное давление - приведенное к уровню моря атмосферное давление.
Po - Атмосферное давление - измеренное на уровне метеостанции атмосферное давление.
Tmin - Минимальная температура - минимум температуры воздуха на высоте 2 м над землей.
Tmax - Максимальная температура - максимум температуры воздуха на высоте 2 м над землей.
R - Количество осадков - Количество выпавших осадков за период времени, мм. При наведении курсора мыши на число - период времени, за который выпало указанное количество осадков.
R24 - Количество осадков - Количество выпавших осадков за 24 часа, мм.
S - Снежный покров - Высота снежного покрова, см. При наведении курсора мыши на число - состояние снежного покрова и степень покрытия местности в баллах.